星链-30130 (STARLINK-30130 )

导读 | 星芒AI

STARLINK-30130 是 SpaceX Starlink 项目中的一颗低轨卫星,属于第三代星链卫星群。该卫星于2024年发射,旨在为全球用户提供高速、低延迟的互联网服务。它运行在约550公里的近地轨道,采用先进通信技术,支持宽带数据传输。STARLINK-30130 与其他星链卫星协同工作,增强网络覆盖,特别是在偏远和网络基础设施薄弱的地区。该卫星还具备自主避障能力,以减少与其他航天器的碰撞风险,提高太空运行的安全性。

基本信息
目录编号:
56697
目录名称:
STARLINK-30130
国际标识:
2023-067K
轨道中心:
EARTH
卫星名称:
星链-30130
卫星全名:
星链-30130 (STARLINK-30130 )
卫星状态:
在轨 (已飞行944 天)
发射日期:
2023-05-19 UTC
国别 :
美国 (US)
星等 :
--
轨道信息
数据来源 国际轨道数据 AOE轨道数据
星历时间 2025-12-18T15:56:30+0800
9小时前
查看轨道信息
2025-12-12T04:00:00+0800
6天前
查看轨道信息
半长轴 6937.142km 6937.205km
偏心率 0.0001407 0.0000721
轨道倾角 43.003° 43.002°
近地点辐角 278.704° 226.663°
升交点赤经 356.361° 31.668°
平近点角 81.364° 226.890°
近地点 558.03km 558.569km
远地点 559.984km 559.571km
周期 95.836分钟 95.838分钟
每日圈数 15.025605 15.025398
详细信息
固有亮度:
5
最大亮度:
0.3
卫星平台:
Starlink v2.0 mini
覆盖范围:
全球
运营商:
太空探索技术公司
运营商所在国:
美国
制造商(研发单位):
太空探索技术公司
制造商所在国:
美国
使用方式:
暂无
卫星简介
星链(Starlink)计划是由太空探索技术公司(SpaceX)提出的一个巨型低轨卫星互联网星座项目,计划在2019年至2024年间在太空搭建由约1.2万颗卫星组成的“星链”网络,其中1584颗将部署在地球上空550千米处的近地轨道,并从2020年开始工作。该卫星仍在工作。
2D轨道图
3D轨道图
轨道高度分析图
轨道倾角分析图
轨道综合分析图
查看轨道综合分析图